NOAA 17 DEB, 48178

Orbit data source: Space-Track

NOAA 17 DEB, 48178 is space debris in SSO originally from a launch on Mon, 24 Jun 2002 UTC launched from the Air Force Western Test Range (AFWTR). Debris objects in space refer to the collection of defunct objects orbiting the Earth. Examples of debris include non-operational satellites, rocket bodies, and fragments generated from explosions, collisions, or faulty payload assembly.

Loading next visibility...
Identifier
48178, 2002-032T
Orbit
SSO
Country
Flag of USUS
Related business
Manufacturer
Unknown
Mission
Spacecraft
Bus & Motor
Unknown
Mass
Unknown
Launch date (UTC)
2002-06-24 (24 years ago)
Launch vehicle
Unknown
Launch site
Air Force Western Test Range (AFWTR)
Object type
Payload
Rocket body
Debris
Shape & HBR
Unknown shape, 0.1 m
Radar Cross Section
Medium (>0.1 m² and <1 m²)

Expand to show TLE details & history
Last TLE update: 1 week ago

TLE from 1 week ago
0 NOAA 17 DEB
1 48178U 02032T   26165.84471378  .00005736  00000-0  13749-2 0  9994
2 48178  98.8603 182.0776 0006542 251.6594 108.3889 14.53878871273656
Epoch: 2026-06-14T20:16Z
TLE epoch observation values (Epoch: 2026-06-14T20:16:23.270Z)
Latitude
-0.00006°
Longitude
-25.15897°
Altitude
717.43 km
Speed
7.496 km/s
True Right ascension
12h 08m 18s
True Declination
0° 00' 00"
Sunlit
Object was in daylight at epoch
Visualization orbit readout
Latitude
Unknown
Longitude
Unknown
Altitude
Unknown
Speed
Unknown
Apparent Right ascension
Unknown
Apparent Declination
Unknown
Sunlit
N/A
Visualization observer readout
Local Sidereal Time
21:37:06
Azimuth
Unknown
Elevation
Unknown
Doppler factor
Unknown
Orbital elements
Apogee altitude
714.766 km
Perigee altitude
705.492 km
Semi-major axis
7,088.266 km
Eccentricity
0.00065
Inclination
98.8603°
RAAN
182.0776°
Arg. of periapsis
251.6594°
True anomaly
108.46002°
Mean anomaly
108.3889°
Eccentric anomaly
108.42446°
Mean motion
3.63692 °/min
Orbital period
98.98 mins
BSTAR
0.0013749
Loading maneuver chart data...
Computing Atmospheric mass density...

Documentation

Showing up to 5 results
|